Wildwood, NJ

11:23 AM EDT on May 29, 2017 (GMT -0400)
Cape May County

Weather History for KWWD - December, 2012

Change the Weather History Date:

Sunday, December 30, 2012

  Actual Average Record
Temperature  
Mean Temperature 37 °F -  
Max Temperature 39 °F 41 °F 57 °F (2003)
Min Temperature 35 °F 29 °F 17 °F (2010)
Degree Days  
Heating Degree Days 28    
Moisture  
Dew Point 21 °F    
Average Humidity 52    
Maximum Humidity 60    
Minimum Humidity 45    
Precipitation  
Precipitation 0.00 in - - ()
Sea Level Pressure  
Sea Level Pressure 30.03 in    
Wind  
Wind Speed 17 mph (WNW)    
Max Wind Speed 23 mph    
Max Gust Speed 38 mph    
Visibility 10 miles    
Events      
Averages and records for this station are not official NWS values.
T = Trace of Precipitation, MM = Missing Value Source: NWS Daily Summary

Daily Weather History Graph

Daily Weather History Graph

Search for Another Location

Airport or City:

Trip Planner

Search our weather history database for the weather conditions in past years. The results will help you decide how hot, cold, wet, or windy it might be!

Date:

Astronomy

Dec. 30, 2012 Rise Set
Actual Time 7:18 AM EST 4:46 PM EST
Civil Twilight 6:48 AM EST 5:16 PM EST
Nautical Twilight 6:14 AM EST 5:50 PM EST
Astronomical Twilight 5:42 AM EST 6:22 PM EST
Moon 7:14 PM EST (12/30) 8:27 AM EST (12/30)
Length of Visible Light 10h 28m
Length of Day
9h 28m
Waning Gibbous, 95% of the Moon is Illuminated
Dec 30
Waning Gibbous
Jan 4
Last Quarter
Jan 11
New
Jan 18
First Quarter
Jan 26
Full

Hourly Weather History & Observations

Time (EST) Temp. Windchill Dew Point Humidity Pressure Visibility Wind Dir Wind Speed Gust Speed Precip Events Conditions
12:15 AM 37.4 °F 27.5 °F 24.8 °F 60% 29.71 in 10.0 mi WNW 18.4 mph 27.6 mph N/A   Overcast
12:35 AM 37.4 °F 27.5 °F 24.8 °F 60% 29.71 in 10.0 mi NW 18.4 mph 28.8 mph N/A   Overcast
12:55 AM 37.4 °F 28.5 °F 24.8 °F 60% 29.72 in 10.0 mi NW 15.0 mph 25.3 mph N/A   Overcast
1:15 AM 37.4 °F 28.5 °F 24.8 °F 60% 29.73 in 10.0 mi NW 15.0 mph 29.9 mph N/A   Overcast
1:55 AM 37.4 °F 29.3 °F 24.8 °F 60% 29.75 in 10.0 mi NW 12.7 mph 20.7 mph N/A   Overcast
2:15 AM 37.4 °F 27.8 °F 24.8 °F 60% 29.76 in 10.0 mi NW 17.3 mph 29.9 mph N/A   Overcast
2:35 AM 37.4 °F 27.2 °F 24.8 °F 60% 29.78 in 10.0 mi WNW 19.6 mph 31.1 mph N/A   Overcast
2:55 AM 37.4 °F 28.5 °F 24.8 °F 60% 29.79 in 10.0 mi NW 15.0 mph 25.3 mph N/A   Overcast
3:15 AM 37.4 °F 28.2 °F 24.8 °F 60% 29.80 in 10.0 mi NW 16.1 mph 26.5 mph N/A   Overcast
3:35 AM 37.4 °F 27.8 °F 23.0 °F 56% 29.81 in 10.0 mi WNW 17.3 mph 31.1 mph N/A   Overcast
3:55 AM 37.4 °F 28.2 °F 23.0 °F 56% 29.82 in 10.0 mi WNW 16.1 mph 28.8 mph N/A   Overcast
4:15 AM 37.4 °F 27.2 °F 23.0 °F 56% 29.82 in 10.0 mi WNW 19.6 mph 31.1 mph N/A   Overcast
4:35 AM 35.6 °F 26.6 °F 23.0 °F 60% 29.83 in 10.0 mi WNW 13.8 mph 25.3 mph N/A   Mostly Cloudy
4:55 AM 35.6 °F 25.5 °F 21.2 °F 56% 29.84 in 10.0 mi WNW 17.3 mph 28.8 mph N/A   Mostly Cloudy
5:15 AM 35.6 °F 24.8 °F 21.2 °F 56% 29.85 in 10.0 mi WNW 19.6 mph 31.1 mph N/A   Mostly Cloudy
5:35 AM 35.6 °F 25.5 °F 21.2 °F 56% 29.87 in 10.0 mi WNW 17.3 mph 28.8 mph N/A   Mostly Cloudy
5:55 AM 35.6 °F 25.5 °F 21.2 °F 56% 29.88 in 10.0 mi WNW 17.3 mph 27.6 mph N/A   Mostly Cloudy
6:15 AM 35.6 °F 27.1 °F 21.2 °F 56% 29.88 in 10.0 mi WNW 12.7 mph 26.5 mph N/A   Partly Cloudy
6:35 AM 35.6 °F 25.9 °F 21.2 °F 56% 29.90 in 10.0 mi NW 16.1 mph 26.5 mph N/A   Clear
6:55 AM 35.6 °F 26.6 °F 21.2 °F 56% 29.92 in 10.0 mi NW 13.8 mph 25.3 mph N/A   Scattered Clouds
7:15 AM 35.6 °F 26.2 °F 21.2 °F 56% 29.93 in 10.0 mi WNW 15.0 mph 26.5 mph N/A   Scattered Clouds
7:35 AM 35.6 °F 25.9 °F 21.2 °F 56% 29.93 in 10.0 mi NW 16.1 mph 29.9 mph N/A   Partly Cloudy
7:55 AM 35.6 °F 26.2 °F 21.2 °F 56% 29.95 in 10.0 mi WNW 15.0 mph 31.1 mph N/A   Partly Cloudy
8:15 AM 35.6 °F 27.1 °F 21.2 °F 56% 29.96 in 10.0 mi WNW 12.7 mph 28.8 mph N/A   Partly Cloudy
8:35 AM 35.6 °F 25.2 °F 21.2 °F 56% 29.97 in 10.0 mi WNW 18.4 mph 29.9 mph N/A   Clear
8:55 AM 37.4 °F 26.4 °F 19.4 °F 48% 29.98 in 10.0 mi WNW 23.0 mph 36.8 mph N/A   Partly Cloudy
9:15 AM 37.4 °F 26.6 °F 21.2 °F 52% 29.99 in 10.0 mi WNW 21.9 mph 35.7 mph N/A   Scattered Clouds
9:35 AM 37.4 °F 28.5 °F 21.2 °F 52% 30.00 in 10.0 mi WNW 15.0 mph 31.1 mph N/A   Scattered Clouds
9:55 AM 37.4 °F 27.2 °F 21.2 °F 52% 30.01 in 10.0 mi WNW 19.6 mph 33.4 mph N/A   Mostly Cloudy
10:15 AM 37.4 °F 26.9 °F 21.2 °F 52% 30.02 in 10.0 mi WNW 20.7 mph 32.2 mph N/A   Mostly Cloudy
10:35 AM 37.4 °F 26.9 °F 21.2 °F 52% 30.03 in 10.0 mi NW 20.7 mph 36.8 mph N/A   Mostly Cloudy
10:55 AM 37.4 °F 26.9 °F 19.4 °F 48% 30.04 in 10.0 mi NW 20.7 mph 33.4 mph N/A   Mostly Cloudy
11:15 AM 39.2 °F 29.8 °F 19.4 °F 45% 30.04 in 10.0 mi NW 18.4 mph 33.4 mph N/A   Scattered Clouds
11:35 AM 39.2 °F 31.6 °F 19.4 °F 45% 30.04 in 10.0 mi NW 12.7 mph 31.1 mph N/A   Scattered Clouds
11:55 AM 39.2 °F 30.8 °F 19.4 °F 45% 30.04 in 10.0 mi NW 15.0 mph 31.1 mph N/A   Mostly Cloudy
12:15 PM 39.2 °F 30.8 °F 19.4 °F 45% 30.04 in 10.0 mi NW 15.0 mph 36.8 mph N/A   Scattered Clouds
12:35 PM 37.4 °F 27.2 °F 21.2 °F 52% 30.04 in 10.0 mi WNW 19.6 mph 29.9 mph N/A   Scattered Clouds
12:55 PM 37.4 °F 27.2 °F 21.2 °F 52% 30.05 in 10.0 mi WNW 19.6 mph 38.0 mph N/A   Overcast
1:15 PM 37.4 °F 28.2 °F 21.2 °F 52% 30.05 in 10.0 mi WNW 16.1 mph 33.4 mph N/A   Mostly Cloudy
1:35 PM 39.2 °F 30.2 °F 21.2 °F 49% 30.06 in 10.0 mi WNW 17.3 mph 33.4 mph N/A   Mostly Cloudy
1:55 PM 37.4 °F 27.5 °F 19.4 °F 48% 30.06 in 10.0 mi NW 18.4 mph 34.5 mph N/A   Mostly Cloudy
2:15 PM 37.4 °F 27.2 °F 19.4 °F 48% 30.07 in 10.0 mi WNW 19.6 mph 29.9 mph N/A   Mostly Cloudy
2:35 PM 39.2 °F 30.2 °F 19.4 °F 45% 30.07 in 10.0 mi NW 17.3 mph 27.6 mph N/A   Overcast
2:55 PM 39.2 °F 32.0 °F 19.4 °F 45% 30.09 in 10.0 mi NW 11.5 mph 29.9 mph N/A   Mostly Cloudy
3:15 PM 39.2 °F 30.8 °F 19.4 °F 45% 30.10 in 10.0 mi NW 15.0 mph 31.1 mph N/A   Mostly Cloudy
3:35 PM 39.2 °F 30.8 °F 19.4 °F 45% 30.11 in 10.0 mi NW 15.0 mph 25.3 mph N/A   Mostly Cloudy
3:55 PM 37.4 °F 28.5 °F 19.4 °F 48% 30.12 in 10.0 mi NW 15.0 mph 29.9 mph N/A   Scattered Clouds
4:15 PM 37.4 °F 27.5 °F 19.4 °F 48% 30.14 in 10.0 mi WNW 18.4 mph 29.9 mph N/A   Scattered Clouds
4:35 PM 37.4 °F 27.2 °F 17.6 °F 45% 30.15 in 10.0 mi WNW 19.6 mph 28.8 mph N/A   Mostly Cloudy
4:55 PM 37.4 °F 27.2 °F 19.4 °F 48% 30.16 in 10.0 mi WNW 19.6 mph 25.3 mph N/A   Scattered Clouds
5:15 PM 37.4 °F 26.6 °F 17.6 °F 45% 30.18 in 10.0 mi WNW 21.9 mph 33.4 mph N/A   Scattered Clouds
5:35 PM 37.4 °F 27.5 °F 19.4 °F 48% 30.19 in 10.0 mi WNW 18.4 mph 36.8 mph N/A   Mostly Cloudy
5:55 PM 37.4 °F 28.9 °F 19.4 °F 48% 30.21 in 10.0 mi WNW 13.8 mph 28.8 mph N/A   Mostly Cloudy
6:15 PM 37.4 °F 27.5 °F 19.4 °F 48% 30.21 in 10.0 mi WNW 18.4 mph 32.2 mph N/A   Mostly Cloudy
6:35 PM 37.4 °F 27.8 °F 19.4 °F 48% 30.23 in 10.0 mi WNW 17.3 mph 28.8 mph N/A   Mostly Cloudy
6:55 PM 37.4 °F 28.5 °F 19.4 °F 48% 30.23 in 10.0 mi WNW 15.0 mph 26.5 mph N/A   Mostly Cloudy
7:15 PM 37.4 °F 28.2 °F 19.4 °F 48% 30.24 in 10.0 mi WNW 16.1 mph 31.1 mph N/A   Partly Cloudy
7:35 PM 37.4 °F 27.8 °F 19.4 °F 48% 30.24 in 10.0 mi WNW 17.3 mph 29.9 mph N/A   Clear
7:55 PM 35.6 °F 25.9 °F 19.4 °F 52% 30.23 in 10.0 mi WNW 16.1 mph 27.6 mph N/A   Clear
8:15 PM 35.6 °F 26.2 °F 19.4 °F 52% 30.24 in 10.0 mi WNW 15.0 mph 23.0 mph N/A   Clear
8:35 PM 35.6 °F 27.1 °F 19.4 °F 52% 30.23 in 10.0 mi NW 12.7 mph 23.0 mph N/A   Clear
8:55 PM 35.6 °F 27.1 °F 19.4 °F 52% 30.21 in 10.0 mi WNW 12.7 mph 21.9 mph N/A   Clear
9:15 PM 35.6 °F 28.6 °F 19.4 °F 52% 30.23 in 10.0 mi WNW 9.2 mph 23.0 mph N/A   Clear
9:35 PM 35.6 °F 28.0 °F 19.4 °F 52% 30.23 in 10.0 mi NW 10.4 mph 21.9 mph N/A   Partly Cloudy
9:55 PM 35.6 °F 28.0 °F 19.4 °F 52% 30.24 in 10.0 mi NW 10.4 mph 24.2 mph N/A   Partly Cloudy
10:15 PM 35.6 °F 27.5 °F 19.4 °F 52% 30.27 in 10.0 mi WNW 11.5 mph 18.4 mph N/A   Partly Cloudy
10:35 PM 35.6 °F 29.2 °F 19.4 °F 52% 30.27 in 10.0 mi WNW 8.1 mph 19.6 mph N/A   Scattered Clouds
10:55 PM 35.6 °F 27.5 °F 19.4 °F 52% 30.27 in 10.0 mi WNW 11.5 mph 19.6 mph N/A   Partly Cloudy
11:15 PM 35.6 °F 28.0 °F 19.4 °F 52% 30.28 in 10.0 mi NW 10.4 mph 17.3 mph N/A   Clear
11:35 PM 35.6 °F 27.5 °F 19.4 °F 52% 30.29 in 10.0 mi WNW 11.5 mph 18.4 mph N/A   Clear
11:55 PM 35.6 °F 27.5 °F 21.2 °F 56% 30.28 in 10.0 mi West 11.5 mph - N/A   Partly Cloudy